Location: Krasnoyarskiy Pitomnik
(51.1333°N, 71.6167°E)
Time: 15:28:31
(UTC+00:00)

COSMOS 2406 - Pass Details

Date: 22 October 2021
Orbit: 843 x 864 km, 71.0° (Epoch: 26 November)

Event Time Altitude Azimuth Distance (km) Brightness Sun altitude
Exits shadow 22:22:12 40° 10° (N) 1,259 4.2 -32.7°
Drops below altitude 10° 22:25:55 10° 26° (NNE) 2,514 6.2 -32.2°
Sets 22:28:25 0° 30° (NNE) 3,454 7.1 -31.8°
